Location: Tauranga
(37.6860°S, 176.1670°E)
Time: 09:47:03
(UTC+13:00)

Cosmos 1805 Rocket - Pass Details

Date: 24 January 2019
Orbit: 607 x 629 km, 82.5° (Epoch: 18 February)

Event Time Altitude Azimuth Distance (km) Brightness Sun altitude
Rises 21:11:37 0° 192° (SSW) 2,907 7.7 -7.3°
Reaches altitude 10° 21:13:53 10° 195° (SSW) 1,993 6.9 -7.7°
Maximum altitude 21:18:14 61° 274° (W) 702 4.1 -8.4°
Drops below altitude 10° 21:22:31 10° 354° (N) 1,962 5.9 -9.1°
Sets 21:24:44 0° 357° (N) 2,858 6.7 -9.5°
